Time,TemperatureF,DewpointF,PressureIn,WindDirection,WindDirectionDegrees,WindSpeedMPH,WindSpeedGustMPH,Humidity,HourlyPrecipIn,Conditions,Clouds,dailyrainin,SolarRadiationWatts/m^2,SoftwareType,DateUTC
2013-04-11 00:00:00,44.9,40.9,29.86,NE,45,0.0,0.0,86,0.06,,,0.00,0000,Weather View 32 v70,2013-04-11 04:00:00,
2013-04-11 00:03:00,44.9,40.9,29.86,NE,45,0.0,0.0,86,0.06,,,0.00,0000,Weather View 32 v70,2013-04-11 04:03:00,
2013-04-11 00:10:00,44.9,40.9,29.86,East,90,0.0,3.0,86,0.07,,,0.01,0008,Weather View 32 v70,2013-04-11 04:10:00,
2013-04-11 00:15:00,44.9,40.9,29.85,East,90,0.0,3.0,86,0.07,,,0.01,0000,Weather View 32 v70,2013-04-11 04:15:00,
2013-04-11 00:25:00,44.7,40.8,29.85,ESE,113,0.0,3.0,86,0.05,,,0.01,0000,Weather View 32 v70,2013-04-11 04:25:00,
2013-04-11 00:35:00,44.6,40.7,29.86,East,90,0.0,3.0,86,0.04,,,0.01,0000,Weather View 32 v70,2013-04-11 04:35:00,
2013-04-11 00:40:00,44.6,40.7,29.85,SSE,158,0.0,3.0,86,0.03,,,0.01,0000,Weather View 32 v70,2013-04-11 04:40:00,
2013-04-11 00:45:00,44.5,40.9,29.84,East,90,0.0,3.0,87,0.02,,,0.01,0000,Weather View 32 v70,2013-04-11 04:45:00,
2013-04-11 00:50:00,44.4,40.8,29.84,NNW,338,0.0,3.0,87,0.02,,,0.01,0000,Weather View 32 v70,2013-04-11 04:50:00,
2013-04-11 01:00:00,44.3,40.7,29.85,NE,45,0.0,6.0,87,0.01,,,0.01,0000,Weather View 32 v70,2013-04-11 05:00:00,
2013-04-11 01:10:00,44.3,40.7,29.84,ENE,68,0.0,6.0,87,0.00,,,0.01,0000,Weather View 32 v70,2013-04-11 05:10:00,
2013-04-11 01:15:00,44.3,40.7,29.84,NNE,23,0.0,6.0,87,0.00,,,0.01,0000,Weather View 32 v70,2013-04-11 05:15:00,
2013-04-11 01:25:00,44.4,40.5,29.84,NNE,23,0.0,6.0,86,0.01,,,0.02,0000,Weather View 32 v70,2013-04-11 05:25:00,
2013-04-11 01:30:00,44.4,40.5,29.83,East,90,0.0,6.0,86,0.01,,,0.02,0000,Weather View 32 v70,2013-04-11 05:30:00,
2013-04-11 01:40:00,44.3,40.7,29.82,ENE,68,0.0,6.0,87,0.01,,,0.02,0000,Weather View 32 v70,2013-04-11 05:40:00,
2013-04-11 01:50:00,44.2,40.5,29.82,NNE,23,0.0,6.0,87,0.01,,,0.02,0000,Weather View 32 v70,2013-04-11 05:50:00,
2013-04-11 01:55:00,44.2,40.5,29.82,North,0,0.0,3.0,87,0.01,,,0.02,0000,Weather View 32 v70,2013-04-11 05:55:00,
2013-04-11 02:00:00,44.2,40.5,29.82,North,0,0.0,3.0,87,0.01,,,0.02,0000,Weather View 32 v70,2013-04-11 06:00:00,
2013-04-11 02:05:00,44.2,40.5,29.82,North,0,0.0,3.0,87,0.01,,,0.02,0000,Weather View 32 v70,2013-04-11 06:05:00,
2013-04-11 02:10:00,44.3,40.7,29.82,North,0,0.0,3.0,87,0.01,,,0.02,0000,Weather View 32 v70,2013-04-11 06:10:00,
2013-04-11 02:15:00,44.3,40.7,29.82,North,0,0.0,3.0,87,0.01,,,0.02,0000,Weather View 32 v70,2013-04-11 06:15:00,
2013-04-11 02:20:00,44.3,40.7,29.82,North,0,0.0,3.0,87,0.01,,,0.02,0008,Weather View 32 v70,2013-04-11 06:20:00,
2013-04-11 02:25:00,44.3,40.7,29.82,North,0,0.0,3.0,87,0.00,,,0.02,0000,Weather View 32 v70,2013-04-11 06:25:00,
2013-04-11 02:35:00,44.4,40.8,29.83,North,0,0.0,3.0,87,0.00,,,0.02,0000,Weather View 32 v70,2013-04-11 06:35:00,
2013-04-11 02:40:00,44.4,40.8,29.83,North,0,0.0,3.0,87,0.00,,,0.02,0000,Weather View 32 v70,2013-04-11 06:40:00,
2013-04-11 02:45:00,44.4,40.8,29.83,NNW,338,0.0,0.0,87,0.00,,,0.02,0000,Weather View 32 v70,2013-04-11 06:45:00,
2013-04-11 02:50:00,44.4,40.8,29.83,NNW,338,0.0,0.0,87,0.00,,,0.02,0000,Weather View 32 v70,2013-04-11 06:50:00,
2013-04-11 03:00:00,44.4,40.8,29.82,North,0,0.0,0.0,87,0.00,,,0.02,0000,Weather View 32 v70,2013-04-11 07:00:00,
2013-04-11 03:05:00,44.5,40.9,29.82,North,0,0.0,0.0,87,0.00,,,0.02,0000,Weather View 32 v70,2013-04-11 07:05:00,
2013-04-11 03:10:00,44.5,41.2,29.82,NNW,338,0.0,0.0,88,0.00,,,0.02,0000,Weather View 32 v70,2013-04-11 07:10:00,
2013-04-11 03:15:00,44.5,41.2,29.82,North,0,0.0,0.0,88,0.00,,,0.02,0000,Weather View 32 v70,2013-04-11 07:15:00,
2013-04-11 03:25:00,44.5,41.5,29.82,NNW,338,0.0,0.0,89,0.00,,,0.02,0000,Weather View 32 v70,2013-04-11 07:25:00,
2013-04-11 03:30:00,44.6,41.3,29.82,NNW,338,0.0,0.0,88,0.00,,,0.02,0000,Weather View 32 v70,2013-04-11 07:30:00,
2013-04-11 03:35:00,44.6,41.3,29.82,North,0,0.0,0.0,88,0.00,,,0.02,0000,Weather View 32 v70,2013-04-11 07:35:00,
2013-04-11 03:45:00,44.7,41.4,29.81,NE,45,0.0,0.0,88,0.00,,,0.02,0000,Weather View 32 v70,2013-04-11 07:45:00,
2013-04-11 03:50:00,44.7,41.4,29.81,NE,45,0.0,0.0,88,0.00,,,0.02,0000,Weather View 32 v70,2013-04-11 07:50:00,
2013-04-11 03:55:00,44.9,41.5,29.82,NNW,338,0.0,0.0,88,0.00,,,0.02,0000,Weather View 32 v70,2013-04-11 07:55:00,
2013-04-11 04:00:00,44.9,41.5,29.82,NNW,338,0.0,0.0,88,0.00,,,0.02,0000,Weather View 32 v70,2013-04-11 08:00:00,
2013-04-11 04:06:00,44.9,41.5,29.82,NNW,338,0.0,0.0,88,0.00,,,0.02,0000,Weather View 32 v70,2013-04-11 08:06:00,
2013-04-11 04:15:00,44.9,41.5,29.81,North,0,0.0,0.0,88,0.00,,,0.02,0008,Weather View 32 v70,2013-04-11 08:15:00,
2013-04-11 04:20:00,45.0,41.6,29.81,North,0,0.0,0.0,88,0.00,,,0.02,0000,Weather View 32 v70,2013-04-11 08:20:00,
2013-04-11 04:25:00,45.0,41.6,29.81,North,0,0.0,0.0,88,0.00,,,0.02,0000,Weather View 32 v70,2013-04-11 08:25:00,
2013-04-11 04:30:00,45.0,41.6,29.81,North,0,0.0,0.0,88,0.00,,,0.02,0000,Weather View 32 v70,2013-04-11 08:30:00,
2013-04-11 04:40:00,45.0,41.9,29.81,NNW,338,0.0,0.0,89,0.00,,,0.02,0000,Weather View 32 v70,2013-04-11 08:40:00,
2013-04-11 04:50:00,45.2,42.1,29.82,NNW,338,0.0,0.0,89,0.00,,,0.02,0000,Weather View 32 v70,2013-04-11 08:50:00,
2013-04-11 04:55:00,45.2,42.1,29.83,NW,315,0.0,0.0,89,0.00,,,0.02,0000,Weather View 32 v70,2013-04-11 08:55:00,
2013-04-11 05:00:00,45.3,42.2,29.83,North,0,0.0,0.0,89,0.00,,,0.02,0008,Weather View 32 v70,2013-04-11 09:00:00,
2013-04-11 05:05:00,45.4,42.4,29.81,North,0,0.0,0.0,89,0.00,,,0.02,0000,Weather View 32 v70,2013-04-11 09:05:00,
2013-04-11 05:15:00,45.5,42.5,29.83,NNW,338,0.0,0.0,89,0.00,,,0.02,0000,Weather View 32 v70,2013-04-11 09:15:00,
2013-04-11 05:20:00,45.8,42.7,29.83,NNE,23,0.0,0.0,89,0.00,,,0.02,0008,Weather View 32 v70,2013-04-11 09:20:00,
2013-04-11 05:25:00,45.8,42.7,29.83,NNW,338,0.0,0.0,89,0.00,,,0.02,0000,Weather View 32 v70,2013-04-11 09:25:00,
2013-04-11 05:30:00,45.8,42.7,29.83,North,0,0.0,0.0,89,0.00,,,0.02,0000,Weather View 32 v70,2013-04-11 09:30:00,
2013-04-11 05:40:00,46.0,42.9,29.83,NNW,338,0.0,0.0,89,0.00,,,0.02,0008,Weather View 32 v70,2013-04-11 09:40:00,
2013-04-11 05:50:00,46.1,43.0,29.84,NNW,338,0.0,0.0,89,0.00,,,0.02,0000,Weather View 32 v70,2013-04-11 09:50:00,
2013-04-11 05:55:00,46.1,43.0,29.85,NW,315,0.0,0.0,89,0.00,,,0.02,0000,Weather View 32 v70,2013-04-11 09:55:00,
2013-04-11 06:00:00,46.2,42.8,29.85,NW,315,0.0,0.0,88,0.00,,,0.02,0000,Weather View 32 v70,2013-04-11 10:00:00,
2013-04-11 06:07:00,46.2,42.8,29.85,NW,315,0.0,0.0,88,0.00,,,0.02,0008,Weather View 32 v70,2013-04-11 10:07:00,
2013-04-11 06:15:00,46.4,43.3,29.86,NNW,338,0.0,3.0,89,0.00,,,0.02,0000,Weather View 32 v70,2013-04-11 10:15:00,
2013-04-11 06:20:00,46.4,43.1,29.87,North,0,0.0,3.0,88,0.00,,,0.02,0000,Weather View 32 v70,2013-04-11 10:20:00,
2013-04-11 06:25:00,46.5,43.2,29.88,NNW,338,0.0,3.0,88,0.00,,,0.02,0000,Weather View 32 v70,2013-04-11 10:25:00,
2013-04-11 06:35:00,46.9,43.5,29.88,NW,315,2.0,3.0,88,0.00,,,0.02,0000,Weather View 32 v70,2013-04-11 10:35:00,
2013-04-11 06:45:00,47.2,43.8,29.89,North,0,0.0,3.0,88,0.00,,,0.02,0008,Weather View 32 v70,2013-04-11 10:45:00,
2013-04-11 06:50:00,47.4,44.4,29.89,North,0,0.0,6.0,89,0.00,,,0.02,0024,Weather View 32 v70,2013-04-11 10:50:00,
2013-04-11 07:00:00,47.7,44.6,29.89,NNE,23,1.0,6.0,89,0.00,,,0.02,0032,Weather View 32 v70,2013-04-11 11:00:00,
2013-04-11 07:05:00,47.8,44.7,29.89,NNE,23,1.0,6.0,89,0.00,,,0.02,0040,Weather View 32 v70,2013-04-11 11:05:00,
2013-04-11 07:15:00,47.9,44.8,29.90,NNE,23,0.0,6.0,89,0.00,,,0.02,0008,Weather View 32 v70,2013-04-11 11:15:00,
2013-04-11 07:25:00,48.0,44.6,29.90,North,0,0.0,10.0,88,0.00,,,0.02,0048,Weather View 32 v70,2013-04-11 11:25:00,
2013-04-11 07:35:00,48.1,44.4,29.91,NNW,338,0.0,10.0,87,0.00,,,0.02,0032,Weather View 32 v70,2013-04-11 11:35:00,
2013-04-11 07:40:00,48.2,44.5,29.91,North,0,0.0,10.0,87,0.00,,,0.02,0032,Weather View 32 v70,2013-04-11 11:40:00,
2013-04-11 07:50:00,48.6,44.9,29.91,North,0,4.0,10.0,87,0.00,,,0.02,0088,Weather View 32 v70,2013-04-11 11:50:00,
2013-04-11 07:55:00,48.7,45.0,29.92,NNW,338,0.0,10.0,87,0.00,,,0.02,0040,Weather View 32 v70,2013-04-11 11:55:00,
2013-04-11 08:05:00,48.9,45.2,29.92,North,0,0.0,10.0,87,0.00,,,0.02,0040,Weather View 32 v70,2013-04-11 12:05:00,
2013-04-11 08:10:00,48.9,45.2,29.92,NNW,338,3.0,10.0,87,0.00,,,0.02,0064,Weather View 32 v70,2013-04-11 12:10:00,
2013-04-11 08:15:00,49.1,45.1,29.92,North,0,0.0,10.0,86,0.00,,,0.02,0072,Weather View 32 v70,2013-04-11 12:15:00,
2013-04-11 08:25:00,49.5,45.4,29.91,NNW,338,1.0,7.0,86,0.00,,,0.02,0088,Weather View 32 v70,2013-04-11 12:25:00,
2013-04-11 08:30:00,49.6,45.2,29.92,North,0,0.0,8.0,85,0.00,,,0.02,0088,Weather View 32 v70,2013-04-11 12:30:00,
2013-04-11 08:40:00,50.0,45.7,29.92,North,0,0.0,8.0,85,0.00,,,0.02,0144,Weather View 32 v70,2013-04-11 12:40:00,
2013-04-11 08:45:00,50.1,45.5,29.92,NNW,338,2.0,8.0,84,0.00,,,0.02,0120,Weather View 32 v70,2013-04-11 12:45:00,
2013-04-11 08:55:00,50.4,45.4,29.92,North,0,0.0,8.0,83,0.00,,,0.02,0136,Weather View 32 v70,2013-04-11 12:55:00,
2013-04-11 09:00:00,50.5,44.8,29.92,NNW,338,0.0,8.0,81,0.00,,,0.02,0224,Weather View 32 v70,2013-04-11 13:00:00,
2013-04-11 09:09:00,51.0,45.7,29.93,NNW,338,0.0,8.0,82,0.00,,,0.02,0200,Weather View 32 v70,2013-04-11 13:09:00,
2013-04-11 09:15:00,51.6,45.9,29.93,NNE,23,0.0,8.0,81,0.00,,,0.02,0256,Weather View 32 v70,2013-04-11 13:15:00,
2013-04-11 09:20:00,51.8,45.2,29.94,NE,45,1.0,9.0,78,0.00,,,0.02,0192,Weather View 32 v70,2013-04-11 13:20:00,
2013-04-11 09:25:00,52.1,45.7,29.95,ENE,68,0.0,9.0,79,0.00,,,0.02,0216,Weather View 32 v70,2013-04-11 13:25:00,
2013-04-11 09:30:00,52.3,45.6,29.95,NNE,23,0.0,9.0,78,0.00,,,0.02,0176,Weather View 32 v70,2013-04-11 13:30:00,
2013-04-11 09:40:00,51.9,44.6,29.95,NE,45,3.0,9.0,76,0.00,,,0.02,0104,Weather View 32 v70,2013-04-11 13:40:00,
2013-04-11 09:45:00,51.6,44.6,29.95,NNE,23,4.0,9.0,77,0.00,,,0.02,0136,Weather View 32 v70,2013-04-11 13:45:00,
2013-04-11 09:50:00,51.7,45.1,29.95,North,0,1.0,9.0,78,0.00,,,0.02,0176,Weather View 32 v70,2013-04-11 13:50:00,
2013-04-11 09:55:00,51.7,44.4,29.96,NNE,23,3.0,9.0,76,0.00,,,0.02,0128,Weather View 32 v70,2013-04-11 13:55:00,
2013-04-11 10:05:00,51.6,45.0,29.95,North,0,1.0,9.0,78,0.00,,,0.02,0160,Weather View 32 v70,2013-04-11 14:05:00,
2013-04-11 10:15:00,52.1,44.7,29.95,ENE,68,1.0,9.0,76,0.00,,,0.02,0408,Weather View 32 v70,2013-04-11 14:15:00,
2013-04-11 10:25:00,52.8,46.2,29.95,North,0,0.0,8.0,78,0.00,,,0.02,0392,Weather View 32 v70,2013-04-11 14:25:00,
2013-04-11 10:30:00,53.2,45.8,29.95,ENE,68,0.0,8.0,76,0.00,,,0.02,0200,Weather View 32 v70,2013-04-11 14:30:00,
2013-04-11 10:40:00,52.6,45.3,29.95,North,0,4.0,10.0,76,0.00,,,0.02,0224,Weather View 32 v70,2013-04-11 14:40:00,
2013-04-11 10:50:00,53.1,45.7,29.95,North,0,0.0,10.0,76,0.00,,,0.02,0224,Weather View 32 v70,2013-04-11 14:50:00,
2013-04-11 11:00:00,53.2,45.1,29.96,NNE,23,0.0,10.0,74,0.00,,,0.02,0136,Weather View 32 v70,2013-04-11 15:00:00,
2013-04-11 11:05:00,52.7,45.0,29.96,North,0,0.0,10.0,75,0.00,,,0.02,0152,Weather View 32 v70,2013-04-11 15:05:00,
2013-04-11 11:10:00,52.5,44.8,29.96,North,0,0.0,10.0,75,0.00,,,0.02,0144,Weather View 32 v70,2013-04-11 15:10:00,
2013-04-11 11:20:00,52.2,44.1,29.96,North,0,5.0,10.0,74,0.00,,,0.02,0128,Weather View 32 v70,2013-04-11 15:20:00,
2013-04-11 11:30:00,52.2,45.2,29.97,North,0,0.0,10.0,77,0.00,,,0.02,0096,Weather View 32 v70,2013-04-11 15:30:00,
2013-04-11 11:35:00,51.9,44.6,29.97,NNE,23,0.0,10.0,76,0.00,,,0.02,0112,Weather View 32 v70,2013-04-11 15:35:00,
2013-04-11 11:45:00,51.5,44.2,29.97,NE,45,4.0,8.0,76,0.00,,,0.02,0064,Weather View 32 v70,2013-04-11 15:45:00,
2013-04-11 11:50:00,51.2,43.8,29.97,North,0,0.0,8.0,76,0.00,,,0.02,0104,Weather View 32 v70,2013-04-11 15:50:00,
2013-04-11 12:00:00,51.2,43.8,29.97,NNW,338,0.0,8.0,76,0.00,,,0.02,0216,Weather View 32 v70,2013-04-11 16:00:00,
2013-04-11 12:05:00,51.5,44.2,29.97,North,0,3.0,8.0,76,0.00,,,0.02,0264,Weather View 32 v70,2013-04-11 16:05:00,
2013-04-11 12:10:00,52.1,44.7,29.97,NNE,23,1.0,8.0,76,0.00,,,0.02,0256,Weather View 32 v70,2013-04-11 16:10:00,
2013-04-11 12:20:00,52.1,44.0,29.97,North,0,0.0,21.0,74,0.00,,,0.02,0128,Weather View 32 v70,2013-04-11 16:20:00,
2013-04-11 12:30:00,51.5,44.5,29.97,NNE,23,0.0,21.0,77,0.00,,,0.02,0136,Weather View 32 v70,2013-04-11 16:30:00,
2013-04-11 12:35:00,50.9,43.6,29.97,East,90,0.0,21.0,76,0.00,,,0.02,0112,Weather View 32 v70,2013-04-11 16:35:00,
2013-04-11 12:40:00,51.0,44.1,29.97,NNW,338,0.0,21.0,77,0.00,,,0.02,0120,Weather View 32 v70,2013-04-11 16:40:00,
2013-04-11 12:45:00,50.9,43.6,29.97,NNE,23,4.0,21.0,76,0.00,,,0.02,0120,Weather View 32 v70,2013-04-11 16:45:00,
2013-04-11 12:55:00,50.6,43.3,29.98,NNE,23,5.0,21.0,76,0.00,,,0.02,0112,Weather View 32 v70,2013-04-11 16:55:00,
2013-04-11 13:05:00,50.5,43.2,29.98,North,0,3.0,21.0,76,0.00,,,0.02,0096,Weather View 32 v70,2013-04-11 17:05:00,
2013-04-11 13:10:00,50.3,43.0,29.98,NNW,338,3.0,21.0,76,0.00,,,0.02,0088,Weather View 32 v70,2013-04-11 17:10:00,
2013-04-11 13:15:00,50.3,43.0,29.99,North,0,0.0,21.0,76,0.00,,,0.02,0104,Weather View 32 v70,2013-04-11 17:15:00,
2013-04-11 13:20:00,50.5,43.2,29.98,NNW,338,0.0,10.0,76,0.00,,,0.02,0136,Weather View 32 v70,2013-04-11 17:20:00,
2013-04-11 13:30:00,51.3,42.9,29.99,ENE,68,0.0,10.0,73,0.00,,,0.02,0232,Weather View 32 v70,2013-04-11 17:30:00,
2013-04-11 13:40:00,50.9,42.6,29.99,ENE,68,0.0,11.0,73,0.00,,,0.02,0104,Weather View 32 v70,2013-04-11 17:40:00,
2013-04-11 13:45:00,50.7,42.0,29.99,NNE,23,0.0,11.0,72,0.00,,,0.02,0096,Weather View 32 v70,2013-04-11 17:45:00,
2013-04-11 13:55:00,50.4,42.0,30.00,ENE,68,2.0,11.0,73,0.00,,,0.02,0104,Weather View 32 v70,2013-04-11 17:55:00,
2013-04-11 14:00:00,50.5,42.1,30.00,ENE,68,0.0,11.0,73,0.00,,,0.02,0088,Weather View 32 v70,2013-04-11 18:00:00,
2013-04-11 14:10:00,50.5,42.1,30.00,NNE,23,0.0,11.0,73,0.00,,,0.02,0080,Weather View 32 v70,2013-04-11 18:10:00,
2013-04-11 14:15:00,50.5,42.1,30.00,NE,45,0.0,11.0,73,0.00,,,0.02,0064,Weather View 32 v70,2013-04-11 18:15:00,
2013-04-11 14:20:00,50.6,42.2,30.00,North,0,0.0,11.0,73,0.00,,,0.02,0096,Weather View 32 v70,2013-04-11 18:20:00,
2013-04-11 14:25:00,50.5,41.8,30.00,East,90,5.0,11.0,72,0.00,,,0.02,0072,Weather View 32 v70,2013-04-11 18:25:00,
2013-04-11 14:30:00,50.3,41.9,30.00,ENE,68,0.0,11.0,73,0.00,,,0.02,0088,Weather View 32 v70,2013-04-11 18:30:00,
2013-04-11 14:40:00,50.6,41.5,30.00,East,90,2.0,9.0,71,0.00,,,0.02,0080,Weather View 32 v70,2013-04-11 18:40:00,
2013-04-11 14:45:00,50.3,41.2,30.00,ENE,68,0.0,11.0,71,0.00,,,0.02,0080,Weather View 32 v70,2013-04-11 18:45:00,
2013-04-11 14:50:00,50.0,40.6,30.00,ENE,68,0.0,11.0,70,0.00,,,0.02,0128,Weather View 32 v70,2013-04-11 18:50:00,
2013-04-11 15:00:00,50.1,41.1,29.99,East,90,0.0,15.0,71,0.00,,,0.02,0128,Weather View 32 v70,2013-04-11 19:00:00,
2013-04-11 15:05:00,50.1,41.1,29.99,North,0,0.0,15.0,71,0.00,,,0.02,0176,Weather View 32 v70,2013-04-11 19:05:00,
2013-04-11 15:13:00,50.8,41.4,29.99,East,90,0.0,15.0,70,0.00,,,0.02,0312,Weather View 32 v70,2013-04-11 19:13:00,
2013-04-11 15:20:00,51.5,41.6,29.99,NE,45,4.0,15.0,69,0.00,,,0.02,0320,Weather View 32 v70,2013-04-11 19:20:00,
2013-04-11 15:30:00,52.7,42.4,29.99,East,90,0.0,15.0,68,0.00,,,0.02,0336,Weather View 32 v70,2013-04-11 19:30:00,
2013-04-11 15:40:00,53.0,41.9,29.99,East,90,2.0,21.0,66,0.00,,,0.02,0304,Weather View 32 v70,2013-04-11 19:40:00,
2013-04-11 15:45:00,53.0,41.1,29.99,NE,45,2.0,21.0,64,0.00,,,0.02,0280,Weather View 32 v70,2013-04-11 19:45:00,
2013-04-11 15:55:00,53.3,41.8,29.98,East,90,4.0,21.0,65,0.00,,,0.02,0288,Weather View 32 v70,2013-04-11 19:55:00,
2013-04-11 16:05:00,52.3,41.6,29.99,SSE,158,4.0,21.0,67,0.00,,,0.02,0232,Weather View 32 v70,2013-04-11 20:05:00,
2013-04-11 16:10:00,52.2,41.5,29.98,SE,135,11.0,21.0,67,0.00,,,0.02,0352,Weather View 32 v70,2013-04-11 20:10:00,
2013-04-11 16:15:00,51.9,40.9,29.99,SE,135,13.0,21.0,66,0.00,,,0.02,0320,Weather View 32 v70,2013-04-11 20:15:00,
2013-04-11 16:20:00,51.5,41.3,29.99,East,90,2.0,21.0,68,0.00,,,0.02,0256,Weather View 32 v70,2013-04-11 20:20:00,
2013-04-11 16:25:00,51.7,40.7,29.99,SE,135,7.0,21.0,66,0.00,,,0.02,0280,Weather View 32 v70,2013-04-11 20:25:00,
2013-04-11 16:35:00,51.3,41.0,29.99,East,90,2.0,19.0,68,0.00,,,0.02,0296,Weather View 32 v70,2013-04-11 20:35:00,
2013-04-11 16:40:00,51.4,40.8,30.00,ESE,113,3.0,19.0,67,0.00,,,0.02,0120,Weather View 32 v70,2013-04-11 20:40:00,
2013-04-11 16:50:00,51.8,41.2,30.00,East,90,4.0,19.0,67,0.00,,,0.02,0272,Weather View 32 v70,2013-04-11 20:50:00,
2013-04-11 16:55:00,51.6,40.6,30.00,NE,45,2.0,19.0,66,0.00,,,0.02,0144,Weather View 32 v70,2013-04-11 20:55:00,
2013-04-11 17:00:00,51.5,40.5,30.00,NNE,23,0.0,19.0,66,0.00,,,0.02,0200,Weather View 32 v70,2013-04-11 21:00:00,
2013-04-11 17:10:00,52.1,40.2,30.00,SE,135,1.0,19.0,64,0.00,,,0.02,0232,Weather View 32 v70,2013-04-11 21:10:00,
2013-04-11 17:20:00,51.8,40.4,30.00,SE,135,8.0,19.0,65,0.00,,,0.02,0272,Weather View 32 v70,2013-04-11 21:20:00,
2013-04-11 17:25:00,51.6,39.4,30.01,ENE,68,2.0,19.0,63,0.00,,,0.02,0144,Weather View 32 v70,2013-04-11 21:25:00,
2013-04-11 17:35:00,50.5,38.3,30.01,East,90,2.0,19.0,63,0.00,,,0.02,0152,Weather View 32 v70,2013-04-11 21:35:00,
2013-04-11 17:40:00,50.5,38.3,30.01,ENE,68,0.0,19.0,63,0.00,,,0.02,0112,Weather View 32 v70,2013-04-11 21:40:00,
2013-04-11 17:45:00,50.6,38.4,30.01,East,90,0.0,19.0,63,0.00,,,0.02,0088,Weather View 32 v70,2013-04-11 21:45:00,
2013-04-11 17:50:00,50.3,37.7,30.01,ENE,68,5.0,19.0,62,0.00,,,0.02,0088,Weather View 32 v70,2013-04-11 21:50:00,
2013-04-11 17:55:00,49.8,36.9,30.01,ESE,113,5.0,12.0,61,0.00,,,0.02,0096,Weather View 32 v70,2013-04-11 21:55:00,
2013-04-11 18:00:00,49.6,36.2,30.01,East,90,0.0,12.0,60,0.00,,,0.02,0056,Weather View 32 v70,2013-04-11 22:00:00,
2013-04-11 18:10:00,49.4,35.6,30.00,NNE,23,0.0,12.0,59,0.00,,,0.02,0048,Weather View 32 v70,2013-04-11 22:10:00,
2013-04-11 18:15:00,49.2,35.9,30.00,East,90,2.0,12.0,60,0.00,,,0.02,0048,Weather View 32 v70,2013-04-11 22:15:00,
2013-04-11 18:25:00,48.5,35.6,30.01,ENE,68,0.0,12.0,61,0.00,,,0.02,0016,Weather View 32 v70,2013-04-11 22:25:00,
2013-04-11 18:35:00,48.0,36.0,30.02,NE,45,2.0,13.0,63,0.00,,,0.02,0016,Weather View 32 v70,2013-04-11 22:35:00,
2013-04-11 18:40:00,47.8,36.2,30.02,East,90,1.0,13.0,64,0.00,,,0.02,0024,Weather View 32 v70,2013-04-11 22:40:00,
2013-04-11 18:50:00,47.4,37.0,30.02,East,90,0.0,13.0,67,0.00,,,0.02,0024,Weather View 32 v70,2013-04-11 22:50:00,
2013-04-11 19:00:00,47.2,36.8,30.03,NE,45,0.0,13.0,67,0.00,,,0.02,0000,Weather View 32 v70,2013-04-11 23:00:00,
2013-04-11 19:05:00,46.9,36.5,30.03,ESE,113,4.0,13.0,67,0.00,,,0.02,0000,Weather View 32 v70,2013-04-11 23:05:00,
2013-04-11 19:10:00,46.9,36.8,30.03,SE,135,0.0,13.0,68,0.00,,,0.02,0000,Weather View 32 v70,2013-04-11 23:10:00,
2013-04-11 19:15:00,46.7,36.6,30.03,South,180,0.0,13.0,68,0.00,,,0.02,0000,Weather View 32 v70,2013-04-11 23:15:00,
2013-04-11 19:30:00,45.8,36.1,30.04,ENE,68,0.0,13.0,69,0.00,,,0.02,0000,Weather View 32 v70,2013-04-11 23:30:00,
2013-04-11 19:40:00,45.4,36.2,30.04,SSE,158,5.0,13.0,70,0.00,,,0.02,0008,Weather View 32 v70,2013-04-11 23:40:00,
2013-04-11 19:45:00,45.3,36.1,30.05,ESE,113,5.0,13.0,70,0.00,,,0.02,0008,Weather View 32 v70,2013-04-11 23:45:00,
2013-04-11 19:55:00,45.1,36.2,30.04,East,90,0.0,12.0,71,0.00,,,0.02,0000,Weather View 32 v70,2013-04-11 23:55:00,
2013-04-11 20:00:00,45.0,36.5,30.04,ENE,68,0.0,12.0,72,0.00,,,0.02,0000,Weather View 32 v70,2013-04-12 00:00:00,
2013-04-11 20:10:00,45.0,36.5,30.05,SSE,158,1.0,11.0,72,0.00,,,0.02,0000,Weather View 32 v70,2013-04-12 00:10:00,
2013-04-11 20:15:00,44.9,36.4,30.05,SE,135,11.0,11.0,72,0.00,,,0.02,0000,Weather View 32 v70,2013-04-12 00:15:00,
2013-04-11 20:20:00,44.9,36.4,30.06,ESE,113,0.0,11.0,72,0.00,,,0.02,0008,Weather View 32 v70,2013-04-12 00:20:00,
2013-04-11 20:30:00,44.7,36.3,30.06,ENE,68,2.0,11.0,72,0.00,,,0.02,0000,Weather View 32 v70,2013-04-12 00:30:00,
2013-04-11 20:35:00,44.7,35.9,30.06,ESE,113,2.0,11.0,71,0.00,,,0.02,0000,Weather View 32 v70,2013-04-12 00:35:00,
2013-04-11 20:40:00,44.7,35.9,30.06,ENE,68,0.0,11.0,71,0.00,,,0.02,0000,Weather View 32 v70,2013-04-12 00:40:00,
2013-04-11 20:45:00,44.7,35.5,30.06,East,90,3.0,11.0,70,0.00,,,0.02,0000,Weather View 32 v70,2013-04-12 00:45:00,
2013-04-11 20:50:00,44.7,35.5,30.07,East,90,0.0,11.0,70,0.00,,,0.02,0000,Weather View 32 v70,2013-04-12 00:50:00,
2013-04-11 20:55:00,44.6,35.1,30.07,East,90,0.0,11.0,69,0.00,,,0.02,0000,Weather View 32 v70,2013-04-12 00:55:00,
2013-04-11 21:00:00,44.6,34.3,30.07,ESE,113,0.0,11.0,67,0.00,,,0.02,0000,Weather View 32 v70,2013-04-12 01:00:00,
2013-04-11 21:05:00,44.6,33.9,30.07,ENE,68,0.0,13.0,66,0.00,,,0.02,0000,Weather View 32 v70,2013-04-12 01:05:00,
2013-04-11 21:15:00,44.5,32.7,30.08,East,90,4.0,13.0,63,0.00,,,0.02,0000,Weather View 32 v70,2013-04-12 01:15:00,
2013-04-11 21:25:00,44.4,32.6,30.09,ENE,68,0.0,13.0,63,0.00,,,0.02,0000,Weather View 32 v70,2013-04-12 01:25:00,
2013-04-11 21:30:00,44.3,32.5,30.08,East,90,0.0,14.0,63,0.00,,,0.02,0008,Weather View 32 v70,2013-04-12 01:30:00,
2013-04-11 21:40:00,44.3,32.5,30.08,SE,135,7.0,14.0,63,0.00,,,0.02,0008,Weather View 32 v70,2013-04-12 01:40:00,
2013-04-11 21:45:00,44.2,33.1,30.08,East,90,2.0,14.0,65,0.00,,,0.02,0000,Weather View 32 v70,2013-04-12 01:45:00,
2013-04-11 21:50:00,44.2,33.1,30.09,East,90,0.0,14.0,65,0.00,,,0.02,0000,Weather View 32 v70,2013-04-12 01:50:00,
2013-04-11 21:55:00,44.2,33.1,30.10,ENE,68,0.0,14.0,65,0.00,,,0.02,0000,Weather View 32 v70,2013-04-12 01:55:00,
2013-04-11 22:00:00,44.1,33.0,30.09,East,90,3.0,14.0,65,0.00,,,0.02,0008,Weather View 32 v70,2013-04-12 02:00:00,
2013-04-11 22:05:00,44.1,33.0,30.09,NE,45,0.0,14.0,65,0.00,,,0.02,0000,Weather View 32 v70,2013-04-12 02:05:00,
2013-04-11 22:15:00,44.0,33.3,30.10,ENE,68,0.0,14.0,66,0.00,,,0.02,0008,Weather View 32 v70,2013-04-12 02:15:00,
2013-04-11 22:20:00,44.0,33.3,30.10,East,90,0.0,14.0,66,0.00,,,0.02,0000,Weather View 32 v70,2013-04-12 02:20:00,
2013-04-11 22:25:00,44.0,33.3,30.09,SE,135,0.0,14.0,66,0.00,,,0.02,0000,Weather View 32 v70,2013-04-12 02:25:00,
2013-04-11 22:30:00,44.0,34.1,30.09,ENE,68,0.0,14.0,68,0.00,,,0.02,0000,Weather View 32 v70,2013-04-12 02:30:00,
2013-04-11 22:40:00,44.0,34.4,30.09,ENE,68,0.0,14.0,69,0.00,,,0.02,0000,Weather View 32 v70,2013-04-12 02:40:00,
2013-04-11 22:50:00,44.0,35.1,30.09,ENE,68,0.0,14.0,71,0.00,,,0.02,0000,Weather View 32 v70,2013-04-12 02:50:00,
2013-04-11 23:00:00,43.8,35.0,30.10,NE,45,0.0,14.0,71,0.00,,,0.02,0016,Weather View 32 v70,2013-04-12 03:00:00,
2013-04-11 23:05:00,43.8,35.4,30.10,NNE,23,0.0,14.0,72,0.00,,,0.02,0000,Weather View 32 v70,2013-04-12 03:05:00,
2013-04-11 23:10:00,43.8,35.4,30.09,North,0,0.0,14.0,72,0.00,,,0.02,0008,Weather View 32 v70,2013-04-12 03:10:00,
2013-04-11 23:15:00,43.8,35.4,30.09,East,90,0.0,14.0,72,0.00,,,0.02,0008,Weather View 32 v70,2013-04-12 03:15:00,
2013-04-11 23:20:00,43.8,35.4,30.09,East,90,0.0,14.0,72,0.00,,,0.02,0008,Weather View 32 v70,2013-04-12 03:20:00,
2013-04-11 23:25:00,43.7,35.3,30.09,NE,45,0.0,12.0,72,0.00,,,0.02,0000,Weather View 32 v70,2013-04-12 03:25:00,
2013-04-11 23:35:00,43.7,35.3,30.09,East,90,3.0,12.0,72,0.00,,,0.02,0000,Weather View 32 v70,2013-04-12 03:35:00,
2013-04-11 23:40:00,43.7,34.9,30.09,North,0,0.0,12.0,71,0.00,,,0.02,0000,Weather View 32 v70,2013-04-12 03:40:00,
2013-04-11 23:50:00,43.8,34.7,30.09,East,90,0.0,6.0,70,0.00,,,0.02,0000,Weather View 32 v70,2013-04-12 03:50:00,
2013-04-11 23:55:00,43.8,34.7,30.10,NE,45,0.0,6.0,70,0.00,,,0.02,0008,Weather View 32 v70,2013-04-12 03:55:00,